Temperature
21 20 20 20 19 19 19 19 18 18 18 18 18 17 17 17 17 17 17 17 16 16 16 16 16 16 16 16 16 16 16 15 15 16 16 16 16 16 16 16 15 15 15
21 20 20 20 19 19 19 19 18 18 18 18 17 17 17 17 17 17 17 16 16 16 16 16 16 16 16 16 16 16 16 15 15 15 16 16 16 16 15 15 15 15 15
20 20 20 19 19 19 19 18 18 18 18 17 17 17 17 17 17 16 16 16 16 16 16 16 16 16 16 16 16 15 15 15 15 15 15 15 15 15 15 15 15 15 15
20 20 19 19 19 19 19 18 18 18 18 17 17 17 17 16 16 16 16 16 16 16 16 16 15 15 15 15 15 15 15 15 15 15 15 15 15 15 15 15 15 14 14
20 20 19 19 19 19 18 18 18 18 17 17 17 17 16 16 16 16 16 16 16 16 15 15 15 15 15 15 15 15 15 15 14 14 14 14 14 14 14 14 14 14 14
20 20 19 19 19 18 18 18 18 17 17 17 17 16 16 16 16 16 15 15 15 15 15 15 15 15 15 15 15 14 14 14 14 14 14 14 14 14 14 14 14 14 14
20 20 19 19 18 18 18 17 17 17 17 16 16 16 16 16 16 15 15 15 15 15 15 15 15 15 15 14 14 14 14 14 14 14 14 14 14 14 13 13 13 13 13
20 19 19 19 18 18 17 17 17 16 16 16 16 16 15 15 15 15 15 15 15 15 15 15 14 14 14 14 14 14 14 14 14 14 13 13 13 13 13 13 13 13 13
19 19 18 18 18 17 17 17 16 16 16 16 15 15 15 15 15 15 15 15 14 14 14 14 14 14 14 14 14 14 14 13 13 13 13 13 13 13 13 13 13 13 12
18 18 18 17 17 17 17 16 16 16 15 15 15 15 15 15 15 14 14 14 14 14 14 14 14 14 13 13 13 13 13 13 13 13 13 13 13 12 12 12 12 12 12
18 18 17 17 17 16 16 16 15 15 15 15 15 14 14 14 14 14 14 14 14 14 13 13 13 13 13 13 13 13 13 13 13 12 12 12 12 12 12 12 12 12 12
17 17 17 16 16 16 15 15 15 15 14 14 14 14 14 14 14 14 13 13 13 13 13 13 13 12 12 12 12 12 12 12 12 12 12 12 12 12 12 12 12 12 11
16 16 16 16 15 15 15 14 14 14 14 14 14 14 13 13 13 13 13 13 13 12 12 12 12 12 12 12 12 12 12 12 12 12 11 11 11 11 11 11 11 11 11
16 15 15 15 15 14 14 14 14 14 13 13 13 13 13 13 13 13 12 12 12 12 12 12 12 12 12 12 11 11 11 11 11 11 11 11 11 11 11 11 11 11 11
15 15 14 14 14 14 14 14 13 13 13 13 13 13 13 12 12 12 12 12 12 12 12 12 12 11 11 11 11 11 11 11 11 11 11 10 10 10 10 10 10 10 10
14 14 14 14 13 13 13 13 13 13 12 12 12 12 12 12 12 12 12 12 12 11 11 11 11 11 11 10 10 10 10 10 10 10 10 10 10 10 10 10 10 10 9
14 13 13 13 13 13 13 12 12 12 12 12 12 12 11 11 11 11 11 11 11 11 11 10 10 10 10 10 10 10 10 10 9 9 10 9 9 9 9 9 9 9 9
13 13 13 13 12 12 12 12 12 12 11 11 11 11 11 11 11 11 11 11 11 10 10 10 10 10 10 10 10 10 9 9 9 9 9 9 9 9 9 9 9 9 9
13 13 13 12 12 12 12 12 11 11 11 11 11 11 11 10 10 10 10 10 10 10 10 10 9 9 9 9 9 9 9 9 9 9 9 9 9 8 8 8 8 8 8
12 12 12 12 12 12 11 11 11 11 11 11 11 10 10 10 10 10 10 10 10 10 9 9 9 9 9 9 9 9 9 8 8 8 8 8 8 8 8 8 8 8 8
12 12 12 12 12 11 11 11 11 11 11 10 10 10 10 10 10 10 10 9 9 9 9 9 9 9 9 8 8 8 8 8 8 8 8 7 7 7 7 7 7 7 7
11 11 11 11 11 11 11 11 11 11 10 10 10 10 10 10 10 10 9 9 9 9 9 9 8 8 8 8 8 8 8 8 8 7 7 7 7 7 7 7 7 7 7
11 11 11 11 11 11 10 10 10 10 10 10 10 10 10 10 9 9 9 9 9 9 8 8 8 8 8 8 8 7 7 7 7 7 7 7 7 7 6 6 6 6 6
11 11 11 11 10 10 10 10 10 10 10 10 10 9 9 9 9 9 9 9 8 8 8 8 8 7 7 7 7 7 7 7 7 7 6 6 6 6 6 6 6 6 6
11 11 10 10 10 10 10 10 10 10 10 9 9 9 9 9 9 9 9 8 8 8 8 8 7 7 7 7 7 7 7 6 6 6 6 6 6 6 5 5 5 5 5
10 10 10 10 10 10 10 10 9 9 9 9 9 9 9 9 9 8 8 8 8 8 7 7 7 7 7 7 6 6 6 6 6 6 5 5 5 5 5 5 5 5 4
Wind_Speed
9 8 7 7 7 6 6 6 5 4 4 4 4 4 4 3 3 3 3 3 3 3 3 3 4 3 3 3 3 4 4 4 5 4 2 2 2 3 2 3 3 4 4
9 8 8 7 6 6 6 5 5 5 4 4 4 3 3 3 3 4 4 4 4 3 3 3 4 3 3 3 3 4 4 5 5 5 3 2 3 3 2 2 2 3 3
9 8 8 7 7 7 6 5 5 5 4 4 4 4 4 4 4 4 4 3 3 4 4 4 4 3 4 3 3 4 4 4 4 4 3 2 1 1 1 2 2 2 3
9 9 9 8 8 7 6 6 5 5 5 4 4 4 4 3 3 3 3 3 3 3 4 4 4 5 5 4 4 4 4 3 3 3 3 2 1 1 1 1 2 2 3
9 9 9 8 7 7 6 6 6 5 6 5 4 4 3 3 3 3 3 3 3 4 4 4 5 5 5 4 3 4 4 3 2 2 2 2 1 1 2 2 3 3 3
9 9 8 7 7 7 7 6 6 5 5 4 5 5 4 4 4 4 3 3 3 4 4 4 4 4 4 4 4 4 5 4 4 3 3 3 3 3 3 2 2 2 3
9 8 8 8 8 7 7 6 6 6 5 5 5 5 5 5 5 5 5 3 4 4 4 4 4 3 3 3 3 2 3 4 6 5 4 4 4 4 3 3 3 3 4
8 8 7 7 7 7 6 7 6 5 5 5 5 5 4 5 5 5 5 3 3 3 4 4 4 4 3 3 3 2 3 3 4 4 4 5 5 4 4 4 4 3 2
7 7 7 7 7 6 7 6 5 5 5 5 4 4 5 5 5 5 4 2 2 3 3 3 4 4 4 3 3 3 3 3 2 3 3 3 3 3 3 2 2 2 2
6 6 6 6 7 7 7 5 4 4 5 5 4 4 5 4 4 4 4 2 2 2 2 2 3 3 2 3 3 4 4 4 2 1 1 2 2 2 2 4 4 4 2
4 4 4 5 6 6 5 4 4 4 3 3 3 2 2 3 3 4 5 3 3 2 1 2 2 1 2 2 3 4 5 4 2 2 1 2 2 1 2 2 3 4 4
2 3 3 4 4 4 5 4 4 4 4 3 2 1 0 1 1 3 4 4 3 2 2 2 2 2 2 2 2 2 3 3 1 1 1 2 2 2 2 2 3 4 5
3 3 3 3 3 4 5 5 4 4 3 2 2 1 1 1 1 0 2 3 3 2 1 1 1 2 1 1 0 1 1 1 1 1 2 2 2 3 2 1 1 2 2
3 3 3 4 3 3 4 4 4 4 3 3 3 2 1 0 1 1 0 1 1 1 0 2 3 3 2 2 2 1 0 1 2 2 2 2 1 1 1 1 1 1 1
3 3 3 3 4 4 3 3 3 3 4 4 3 3 3 2 2 2 2 1 1 2 2 2 2 2 2 1 1 1 0 0 0 1 1 1 1 1 2 2 1 1 2
3 3 3 3 3 4 4 3 4 3 4 4 4 4 3 3 3 3 2 2 2 3 3 2 1 1 1 1 1 1 1 1 1 1 1 2 2 2 2 2 1 2 3
4 4 3 4 4 4 4 4 3 3 5 4 3 3 3 3 2 2 2 3 3 4 3 1 0 1 1 2 2 1 1 2 2 1 1 2 2 2 2 2 2 2 3
4 4 4 4 4 4 4 4 4 4 2 1 2 3 3 3 3 3 4 5 3 2 1 1 1 1 2 2 2 2 2 2 1 1 1 1 1 1 2 3 3 3 3
4 3 3 4 4 4 4 4 3 3 3 2 1 1 2 3 3 3 4 2 2 1 1 1 2 2 2 2 2 2 2 2 2 2 1 1 1 2 2 3 3 3 3
3 5 5 4 4 4 4 4 3 3 3 2 2 1 1 2 2 1 1 1 1 1 2 2 2 2 2 3 2 2 2 2 2 2 2 1 2 2 2 3 3 3 3
3 3 4 4 3 3 3 3 3 3 3 2 2 2 3 3 2 2 2 1 2 2 2 2 2 2 2 2 2 2 2 2 2 2 2 2 2 2 2 2 3 3 3
3 3 3 3 3 3 2 2 2 3 3 3 1 1 3 3 2 2 2 2 2 2 2 2 2 2 2 2 2 2 2 1 2 2 2 2 2 2 2 2 3 3 3
4 4 3 2 2 3 2 2 2 2 2 2 2 2 2 2 2 2 2 2 2 2 1 1 1 1 1 1 1 1 1 2 2 2 2 2 2 2 2 2 3 3 3
4 4 4 3 2 2 2 2 2 2 2 2 2 2 2 2 2 2 2 1 1 1 0 0 1 1 2 2 1 1 1 2 2 1 1 1 2 2 1 2 2 3 3
3 3 3 3 3 3 2 2 2 2 2 2 2 2 2 2 2 2 2 1 1 1 0 0 0 1 1 2 2 1 2 1 1 1 1 1 1 2 2 2 2 3 3
3 3 3 3 3 3 3 3 2 2 2 2 2 2 2 2 2 2 1 1 1 1 1 1 1 1 2 2 2 2 2 1 1 1 0 0 0 1 2 2 3 3 3
Wind_Direction
189 187 185 187 188 185 190 197 199 197 193 198 202 206 205 209 209 205 216 219 217 234 234 225 232 223 219 218 212 212 214 212 240 261 245 256 244 258 267 247 251 251 261
186 180 184 181 178 183 192 195 191 193 193 196 198 203 212 216 213 211 223 228 223 229 240 232 241 231 227 227 218 221 222 217 225 255 260 245 247 257 253 244 259 251 254
180 180 182 184 184 191 196 194 192 195 196 196 196 206 215 219 220 223 224 230 231 234 238 235 241 231 235 232 223 228 232 228 221 233 250 244 260 285 283 270 263 265 266
177 183 189 193 193 196 196 194 194 194 195 200 204 212 215 216 218 223 228 232 238 244 243 239 240 232 232 230 228 228 224 218 215 226 240 247 256 282 274 272 279 264 260
176 187 196 195 191 190 193 196 197 197 201 200 201 211 215 216 222 216 223 235 241 252 253 247 244 231 228 224 228 223 211 207 207 220 238 235 241 257 254 248 257 267 250
179 191 194 192 191 194 195 192 195 200 202 199 205 208 215 228 223 212 210 227 239 246 255 259 253 241 238 234 232 218 204 204 209 209 224 242 249 238 235 237 240 264 273
183 189 190 193 196 199 198 193 199 203 198 204 212 213 221 228 218 214 217 221 235 245 249 258 263 262 248 248 249 232 217 208 200 196 210 232 241 236 226 232 231 239 250
182 191 193 194 199 197 195 202 206 202 202 209 215 217 222 232 218 214 217 215 235 250 253 250 249 262 257 233 223 236 248 243 219 207 213 228 238 236 225 225 228 235 262
191 197 199 196 197 196 198 204 203 196 202 207 210 213 222 236 223 218 202 192 225 261 271 265 252 249 254 217 202 219 246 262 244 197 204 233 244 242 215 206 209 214 249
204 204 200 194 195 200 201 198 193 191 202 202 211 213 215 229 228 214 189 183 206 256 290 294 277 253 238 200 207 212 228 247 259 283 287 297 287 272 213 213 214 217 224
197 186 183 187 189 191 189 183 176 183 186 193 199 211 212 222 225 211 193 190 199 220 262 294 297 264 218 201 203 216 227 230 228 226 253 281 288 289 261 245 230 221 218
163 165 173 176 183 178 165 167 166 166 172 179 173 194 278 253 225 220 209 202 190 191 228 264 282 274 228 212 212 230 219 201 194 205 251 276 281 279 273 264 255 243 233
147 167 172 166 166 164 164 165 161 158 168 178 175 186 250 311 345 257 206 198 191 195 229 241 297 322 334 0 328 249 203 185 186 218 248 260 262 261 269 269 274 272 256
151 164 161 154 149 149 157 162 165 170 172 173 177 188 205 230 28 38 61 135 140 149 138 67 50 42 41 43 36 39 329 219 214 233 255 273 289 286 280 271 254 269 267
145 148 149 152 150 145 142 152 162 174 178 179 186 182 178 198 233 192 165 179 184 175 134 86 55 37 28 12 10 20 11 30 290 286 279 282 294 303 296 288 268 256 251
148 156 157 147 141 138 129 99 64 87 109 135 160 171 182 185 174 165 164 152 138 134 114 93 59 30 317 297 296 307 307 296 286 281 276 268 275 291 300 297 275 253 256
159 159 150 141 139 140 139 139 125 64 63 69 90 127 142 136 130 141 128 106 105 121 110 124 241 269 288 293 288 285 285 289 289 283 273 270 271 284 289 282 272 268 270
148 148 144 146 147 147 146 147 148 148 133 67 49 92 113 121 121 124 122 102 83 92 148 228 266 275 283 289 285 283 286 292 289 284 278 283 288 287 292 287 269 263 266
149 150 146 143 143 143 142 142 145 148 154 152 99 47 77 94 91 97 119 118 138 173 225 254 267 270 274 273 271 272 275 281 282 275 282 289 289 290 291 293 288 272 265
144 145 141 139 138 137 142 145 147 153 160 169 187 196 134 106 103 105 129 150 174 217 241 256 269 272 273 279 281 276 277 286 292 288 284 280 282 281 289 295 295 295 291
142 139 134 131 137 145 151 162 167 170 177 186 208 209 180 175 183 188 195 204 215 231 245 257 271 279 281 283 282 276 274 284 287 287 288 280 277 278 286 290 291 294 305
137 137 139 140 140 142 151 160 166 177 186 191 213 216 189 190 192 192 208 227 236 241 245 251 269 283 285 282 281 277 268 273 289 296 294 290 286 280 284 292 299 304 306
150 150 142 135 135 137 141 153 169 185 200 209 208 206 195 204 209 212 220 233 247 255 256 249 266 295 314 315 297 279 275 280 283 289 295 295 293 292 289 286 290 298 305
158 153 150 148 144 147 158 172 181 187 193 204 206 208 215 220 223 229 236 239 243 259 252 242 277 320 345 359 351 334 305 304 299 277 268 275 291 300 301 302 301 301 305
158 157 161 166 165 164 167 176 181 183 193 205 200 197 209 214 221 232 235 217 202 209 261 341 356 330 329 343 348 340 328 334 345 322 275 262 296 312 315 311 316 322 322
157 165 173 175 174 176 182 190 196 198 208 216 208 205 212 215 223 234 227 200 196 207 245 270 288 288 300 313 316 332 343 344 343 340 262 211 296 317 321 310 314 317 316
Height
1512 1514 1517 1520 1522 1524 1526 1528 1530 1531 1532 1533 1534 1534 1535 1535 1535 1535 1535 1535 1535 1535 1535 1535 1535 1535 1535 1535 1535 1536 1536 1536 1535 1535 1535 1535 1535 1535 1534 1534 1534 1534 1534
1508 1511 1514 1516 1519 1521 1523 1525 1527 1528 1529 1530 1531 1531 1532 1532 1532 1532 1532 1532 1532 1532 1532 1532 1532 1532 1532 1532 1532 1532 1532 1533 1533 1532 1532 1532 1532 1531 1531 1531 1531 1530 1530
1505 1508 1510 1513 1515 1518 1520 1522 1524 1525 1526 1527 1528 1528 1528 1529 1529 1529 1529 1529 1529 1529 1529 1528 1528 1529 1529 1529 1528 1528 1529 1529 1529 1529 1528 1528 1528 1528 1528 1527 1527 1527 1527
1501 1504 1507 1509 1512 1514 1516 1518 1520 1521 1522 1523 1524 1525 1525 1526 1526 1526 1526 1526 1526 1525 1525 1525 1525 1525 1525 1525 1525 1525 1525 1525 1525 1525 1525 1524 1524 1524 1524 1523 1523 1523 1523
1498 1500 1503 1506 1508 1510 1512 1514 1515 1517 1518 1519 1520 1521 1521 1522 1522 1522 1522 1522 1522 1522 1521 1521 1521 1521 1521 1521 1520 1520 1521 1520 1521 1521 1521 1521 1520 1520 1520 1520 1519 1519 1519
1494 1497 1500 1502 1504 1506 1507 1509 1511 1512 1513 1514 1515 1516 1517 1517 1518 1518 1518 1518 1518 1518 1517 1517 1517 1517 1517 1517 1516 1516 1517 1517 1516 1517 1517 1517 1517 1517 1517 1516 1516 1516 1515
1490 1493 1496 1498 1500 1501 1503 1504 1506 1507 1509 1510 1511 1512 1512 1513 1513 1514 1514 1514 1514 1514 1513 1513 1513 1513 1513 1512 1512 1512 1512 1512 1513 1513 1512 1513 1513 1513 1513 1513 1512 1512 1512
1486 1489 1492 1494 1495 1496 1498 1499 1501 1503 1504 1505 1507 1507 1508 1509 1510 1510 1510 1510 1510 1509 1509 1509 1508 1508 1508 1508 1508 1507 1507 1507 1508 1508 1508 1508 1509 1509 1509 1509 1509 1509 1508
1483 1485 1487 1489 1490 1492 1493 1495 1497 1498 1500 1501 1502 1503 1504 1505 1506 1506 1506 1506 1505 1505 1505 1505 1504 1504 1504 1504 1503 1502 1503 1503 1504 1504 1504 1504 1504 1505 1505 1505 1505 1505 1504
1478 1481 1483 1485 1486 1488 1489 1491 1492 1494 1495 1496 1497 1498 1500 1500 1501 1502 1502 1501 1501 1501 1501 1501 1500 1500 1499 1499 1498 1498 1497 1498 1499 1499 1499 1500 1500 1500 1500 1500 1500 1500 1500
1476 1478 1479 1481 1482 1483 1485 1487 1488 1490 1491 1492 1493 1494 1495 1496 1497 1497 1498 1498 1498 1497 1497 1497 1496 1496 1495 1495 1494 1494 1494 1494 1494 1495 1495 1495 1495 1495 1495 1496 1496 1496 1495
1473 1474 1475 1477 1478 1479 1481 1482 1484 1485 1486 1488 1489 1490 1491 1491 1492 1493 1494 1494 1494 1494 1493 1493 1493 1492 1491 1491 1490 1490 1490 1490 1490 1491 1490 1490 1490 1490 1490 1491 1491 1491 1491
1469 1470 1472 1473 1475 1476 1477 1478 1479 1481 1482 1483 1485 1486 1487 1487 1488 1489 1490 1491 1491 1491 1490 1490 1489 1489 1488 1488 1487 1487 1487 1487 1486 1487 1486 1486 1486 1486 1486 1486 1486 1486 1487
1466 1467 1469 1470 1471 1472 1473 1475 1476 1477 1479 1480 1481 1482 1483 1484 1485 1486 1487 1487 1488 1488 1488 1487 1487 1486 1486 1485 1485 1485 1484 1484 1483 1483 1483 1483 1482 1482 1481 1481 1481 1481 1481
1464 1465 1466 1467 1468 1469 1470 1472 1473 1474 1476 1477 1478 1479 1480 1481 1482 1483 1484 1484 1485 1485 1484 1484 1484 1483 1483 1483 1483 1482 1482 1481 1480 1480 1479 1479 1478 1478 1477 1477 1476 1476 1477
1461 1462 1463 1464 1466 1467 1468 1470 1471 1473 1475 1476 1477 1478 1479 1480 1481 1482 1482 1482 1482 1482 1482 1481 1481 1481 1481 1481 1480 1479 1479 1478 1478 1477 1476 1476 1475 1474 1473 1473 1473 1473 1473
1459 1460 1461 1463 1464 1466 1467 1468 1470 1472 1474 1475 1476 1477 1478 1478 1479 1480 1480 1480 1480 1481 1480 1480 1479 1479 1479 1478 1477 1476 1476 1475 1475 1474 1473 1473 1472 1471 1470 1469 1469 1469 1469
1458 1459 1460 1462 1463 1465 1467 1468 1469 1470 1471 1473 1475 1476 1476 1477 1478 1479 1479 1479 1479 1478 1478 1478 1477 1477 1476 1475 1475 1474 1473 1472 1472 1471 1470 1469 1469 1468 1467 1466 1466 1465 1465
1458 1459 1460 1461 1463 1464 1466 1467 1468 1469 1470 1471 1472 1474 1475 1475 1476 1477 1477 1477 1476 1476 1476 1476 1475 1474 1474 1473 1472 1471 1470 1469 1468 1468 1467 1466 1466 1465 1464 1464 1463 1462 1462
1458 1459 1460 1461 1462 1463 1464 1465 1467 1468 1469 1470 1471 1472 1473 1473 1473 1474 1475 1475 1475 1474 1474 1474 1473 1472 1471 1470 1469 1468 1467 1466 1465 1464 1464 1463 1463 1462 1461 1461 1460 1459 1458
1457 1459 1460 1460 1461 1462 1463 1464 1465 1466 1467 1468 1469 1470 1470 1471 1471 1472 1472 1472 1472 1472 1472 1471 1470 1469 1469 1468 1466 1465 1464 1462 1462 1461 1460 1460 1459 1459 1458 1457 1457 1456 1454
1456 1458 1459 1459 1460 1461 1462 1464 1465 1465 1466 1466 1467 1468 1468 1469 1469 1469 1470 1470 1470 1470 1469 1468 1468 1467 1466 1465 1463 1461 1460 1459 1459 1458 1457 1456 1456 1455 1454 1454 1453 1452 1451
1457 1457 1458 1459 1460 1461 1462 1463 1463 1464 1464 1464 1465 1465 1466 1466 1467 1467 1467 1468 1467 1467 1466 1466 1465 1464 1462 1461 1460 1459 1457 1456 1456 1454 1453 1452 1452 1451 1450 1450 1449 1448 1448
1456 1457 1458 1459 1459 1460 1461 1462 1462 1462 1462 1463 1463 1463 1464 1464 1465 1465 1465 1465 1465 1464 1463 1463 1462 1461 1459 1458 1457 1456 1455 1454 1453 1452 1451 1450 1449 1448 1447 1446 1446 1445 1444
1455 1456 1457 1458 1459 1459 1460 1461 1461 1461 1461 1461 1461 1461 1462 1462 1462 1462 1462 1462 1461 1461 1460 1460 1459 1458 1456 1455 1454 1453 1452 1451 1450 1449 1448 1447 1446 1445 1445 1444 1443 1442 1441
1454 1456 1457 1458 1458 1459 1459 1459 1460 1459 1459 1460 1460 1460 1460 1460 1460 1460 1459 1459 1458 1458 1457 1456 1456 1455 1453 1452 1451 1450 1449 1448 1447 1446 1445 1445 1444 1443 1443 1442 1441 1440 1439